Location: Newark
(39.6867°N, 100.6772°W)
Time: 09:48:00
(UTC+00:00)

Vanguard 1 - Pass Details

Date: 19 October 2019
Orbit: 652 x 3831 km, 34.2° (Epoch: 13 November)

Event Time Altitude Azimuth Distance (km) Brightness Sun altitude
Rises 09:36:15 0° 279° (W) 7,009 - -38.8°
Reaches altitude 10° 09:42:26 10° 265° (W) 6,400 - -37.7°
Maximum altitude 09:56:14 21° 225° (SW) 5,937 - -35.1°
Exits shadow 10:02:37 19° 206° (SSW) 6,150 13.7 -34.0°
Drops below altitude 10° 10:11:02 10° 185° (S) 6,756 14.1 -32.4°
Sets 10:18:08 0° 171° (S) 7,470 14.5 -31.1°
